Disclaimer

Please do not use the information listed here in-flight or in-navigation, as they are not provided to us by the airports but are provided by volunteers, so they might be outdated.

Search


Regions


Airport information page

Radio informations:
Tower (TWR) - 118.5 MHz
Approach (APP) - 124.3 MHz

Airport informations:
Latitude: 13° 24' 38.40" N
Longitude: 103° 48' 46.22" E
Elevation: 60 feet - 18 meters
Operating hours: Remarks
Operating agency: Civil government, landing fees and diplomatic clearance may be required
Timezone: UTC+7
Fuel: Unknown fuel type or whether there is any fuel.

Runway information:
05/23 - 8366 x 148 feet< - >2550 x 45 meters

Recent METARs:
VDSR 171430Z VRB03KT 9000 SCT017 SCT040 28/21 Q1011
VDSR 171500Z 35002KT 9000 SCT017 SCT040 28/21 Q1011
VDSR 171530Z 35006KT 9000 SCT017 SCT040 28/21 Q1011

Airport on the map: